Regional Weather Roundup
Issued by NWS Little Rock, AR

Home | Current Version | Previous Version | Text Only | Print | Product List | Glossary On
Versions: 1 2 3 4 5 6 7 8 9 10 11 12 13 14 15 16 17 18 19 20 21 22 23 24 25 26 27 28 29 30 31 32 33 34 35 36 37 38 39 40 41 42 43 44 45 46 47 48 49 50
178
ASUS44 KLZK 250805
RWRLZK

WEATHER ROUNDUP FOR ARKANSAS
NATIONAL WEATHER SERVICE LITTLE ROCK AR
300 AM CDT MON SEP 25 2017

NOTE: "FAIR" INDICATES FEW OR NO CLOUDS BELOW 12,000 FEET WITH NO
SIGNIFICANT WEATHER AND/OR OBSTRUCTIONS TO VISIBILITY.

ARZ001-003-010-029-250900-
NORTHWEST ARKANSAS

CITY           SKY/WX    TMP DP  RH WIND       PRES   REMARKS
FAYETTEVILLE   CLEAR     62  62 100 CALM      29.98F
FORT SMITH     CLEAR     70  67  90 E6        29.94S
HARRISON       CLEAR     65  64  97 SE5       30.00S
BENTONVILLE    CLEAR     68  63  84 SE6       29.99F
ROGERS         CLEAR     69  64  84 SE7       29.99F
SILOAM SPGS    CLEAR     69  62  78 E6        29.97F
HIGHFILL       CLEAR     67  63  87 CALM      29.97F
$$

ARZ004-005-016-250900-
NORTH CENTRAL ARKANSAS

CITY           SKY/WX    TMP DP  RH WIND       PRES   REMARKS
BATESVILLE     PTCLDY    67  65  93 CALM      29.98S
FLIPPIN        CLEAR     66  64  93 CALM      29.99R
MTN HOME       CLEAR     67  66  97 CALM      29.98R
$$

ARZ040-041-250900-
WEST CENTRAL ARKANSAS

CITY           SKY/WX    TMP DP  RH WIND       PRES   REMARKS
MENA           CLEAR     63  63 100 CALM      29.98S
MOUNT IDA      PTCLDY    64  62  93 CALM      29.94F FOG
$$

ARZ009-017-025-026-028-250900-
NORTHEAST ARKANSAS

CITY           SKY/WX    TMP DP  RH WIND       PRES   REMARKS
CORNING        FAIR      68  68 100 NW5       29.98S
JONESBORO      CLEAR     68  68 100 CALM      29.97S
NEWPORT        CLEAR     66  65  96 NE3       29.97F
BLYTHEVILLE    CLEAR     67  67 100 CALM      29.98S
$$

ARZ022-023-033-042-044-250900-
CENTRAL ARKANSAS

CITY           SKY/WX    TMP DP  RH WIND       PRES   REMARKS
LITTLE ROCK    CLEAR     70  69  97 CALM      29.95F
N LITTLE ROCK    N/A     72  66  82 CALM      29.96S
JACKSONVILLE   PTCLDY    68  67  99 CALM      29.95S
CONWAY           N/A     66  64  94 CALM      29.94S
SEARCY         PTCLDY    68  68 100 CALM      29.98S FOG
HOT SPRINGS    CLEAR     68  67  96 CALM      29.95F
RUSSELLVILLE   CLEAR     66  66 100 CALM      29.95F
CLINTON        CLOUDY    66  64  94 CALM      29.98S FOG
$$

ARZ036-250900-
EAST ARKANSAS

CITY           SKY/WX    TMP DP  RH WIND       PRES   REMARKS
WEST MEMPHIS   CLEAR     69  69 100 CALM      29.96S
$$

ARZ050-053-066-070-073-250900-
SOUTHWEST ARKANSAS

CITY           SKY/WX    TMP DP  RH WIND       PRES   REMARKS
ARKADELPHIA    FAIR      64  64 100 CALM      29.94S
CAMDEN         CLEAR     68  64  88 CALM      29.93S FOG
TEXARKANA      CLEAR     69  68  96 E5        29.92F
EL DORADO      CLEAR     68  67  96 CALM      29.94S
DE QUEEN       CLEAR     67  67 100 CALM      29.91F FOG
$$

ARZ056-057-069-250900-
SOUTHEAST ARKANSAS

CITY           SKY/WX    TMP DP  RH WIND       PRES   REMARKS
PINE BLUFF     CLEAR     67  65  93 CALM      29.95S
STUTTGART      CLEAR     71  67  87 E3        29.96S
MONTICELLO     CLEAR     69  66  90 CALM      29.95S

$$






USA.gov is the U.S. government's official web portal to all federal, state and local government web resources and services.